Regional Weather Roundup
Issued by NWS

Home | Current Version | Previous Version | Graphics & Text | Print | Product List | Glossary Off
Versions: 1 2 3 4 5 6 7 8 9 10 11 12 13 14 15 16 17 18 19 20 21 22 23 24 25 26 27 28 29 30 31 32 33 34 35 36 37 38 39 40 41 42 43 44 45 46 47 48 49 50

000
ASUS43 KDMX 231201
RWRIA

WEATHER ROUNDUP FOR IOWA
NATIONAL WEATHER SERVICE DES MOINES IA
700 AM CDT SUN APR 23 2017

NOTE: "FAIR" INDICATES FEW OR NO CLOUDS BELOW 12,000 FEET WITH NO
SIGNIFICANT WEATHER AND/OR OBSTRUCTIONS TO VISIBILITY.

* - THESE STATIONS ARE NOT NWS STATIONS...THUS NOT UNDER NWS
QUALITY CONTROL.  THEY ALSO DO NOT REPORT WEATHER SUCH
AS PRECIPITATION OR FOG.

IAZ001>003-012>014-020>022-031>034-043>046-231300-
   NORTHWEST IOWA

CITY           SKY/WX    TMP DP  RH WIND       PRES   REMARKS
CARROLL *      CLEAR     41  34  75 W5        30.15S
CHEROKEE *     CLEAR     32  32 100 CALM      30.14S FOG
DENISON *      CLEAR     36  32  87 CALM      30.17S
LE MARS *      CLEAR     37  34  87 S6        30.13S WCI  33
ORANGE CITY *  CLEAR     41  34  75 SW7       30.11F
SHELDON *      CLEAR     43  34  70 SW6       30.10R
SIOUX CITY     CLEAR     36  34  92 SE6       30.14F WCI  31
6HR MIN TEMP:  36; 6HR MAX TEMP:  45;

SPENCER        CLEAR     39  32  76 SW8       30.12S WCI  33
6HR MIN TEMP:  37; 6HR MAX TEMP:  43;

STORM LAKE *   CLEAR     43  32  65 SW8       30.13F
$$

IAZ055>058-069>071-079>083-090>094-231300-
   SOUTHWEST IOWA

CITY           SKY/WX    TMP DP  RH WIND       PRES   REMARKS
ATLANTIC *     CLEAR     32  32 100 N3        30.17S
AUDUBON *      CLEAR     32  30  93 CALM      30.17S
CLARINDA *     CLEAR     32  32 100 CALM      30.20S
COUNCIL BLFS * CLEAR     45  37  76 VRB3      30.17R
CRESTON *      CLEAR     41  30  65 W5        30.18S
HARLAN  *      CLEAR     34  34 100 CALM      30.20R
LAMONI         CLEAR     44  29  55 W6        30.17S
6HR MIN TEMP:  40; 6HR MAX TEMP:  45;

RED OAK *      CLEAR     34  32  93 CALM      30.18R
SHENANDOAH *   CLEAR     36  32  87 CALM      30.19R
$$

IAZ047>049-059>061-072>074-084-231300-
   CENTRAL IOWA

CITY           SKY/WX    TMP DP  RH WIND       PRES   REMARKS
AMES           CLEAR     39  34  82 CALM      30.15R
6HR MIN TEMP:  36; 6HR MAX TEMP:  46;

ANKENY *       CLEAR     36  34  93 CALM      30.17R FOG
BOONE *        PTCLDY    45  32  61 CALM      30.15R
CHARITON *     CLEAR     43  28  56 W7        30.17R
DES MOINES     CLEAR     44  32  62 CALM      30.16R
6HR MIN TEMP:  44; 6HR MAX TEMP:  50;

GRINNELL*      CLEAR     44  28  53 W5        30.17R
KNOXVILLE *    CLEAR     39  32  75 SW5       30.15S
MARSHALLTOWN   CLEAR     39  33  79 CALM      30.15R
6HR MIN TEMP:  36; 6HR MAX TEMP:  44;

NEWTON *       CLEAR     45  28  53 CALM      30.15R
PELLA *        CLEAR     40  38  93 CALM      30.17S
PERRY *          N/A     40  32  73 SW3       30.16R
$$

IAZ004>006-015-016-023>025-035-036-231300-
   NORTH CENTRAL IOWA

CITY           SKY/WX    TMP DP  RH WIND       PRES   REMARKS
ALGONA *       CLEAR     41  36  81 SW6       30.12R
ESTHERVILLE    CLEAR     40  33  76 SW8       30.10S WCI  34
6HR MIN TEMP:  38; 6HR MAX TEMP:  47;

FORT DODGE *   CLEAR     37  32  81 S3        30.14F
MASON CITY     CLEAR     45  34  65 SW7       30.13F
6HR MIN TEMP:  42; 6HR MAX TEMP:  51;

FOREST CITY *    N/A     36  32  87 CALM      30.13S
WEBSTER CITY * CLEAR     41  34  75 SW7       30.13S
IOWA FALLS *     N/A     40  33  73 SW6       30.15F
$$

IAZ007>011-017>019-026>030-037>042-050>054-066-231300-
   NORTHEAST IOWA

CITY           SKY/WX    TMP DP  RH WIND       PRES   REMARKS
CEDAR RAPIDS   CLEAR     40  30  67 W5        30.15R
6HR MIN TEMP:  35; 6HR MAX TEMP:  44;

CHARLES CITY * CLEAR     45  32  61 SW5       30.13R
CLINTON *      CLEAR     38  33  82 CALM      30.17R
DECORAH *      CLEAR     46  30  53 SW3       30.11S
DUBUQUE        CLEAR     40  31  70 SW6       30.15R
6HR MIN TEMP:  37; 6HR MAX TEMP:  44;

MONTICELLO *   CLEAR     36  34  93 CALM      30.16R
OELWEIN *      CLEAR     39  36  87 S6        30.15S WCI  35
WATERLOO       CLEAR     36  32  85 S3        30.14S
6HR MIN TEMP:  35; 6HR MAX TEMP:  43;

$$

IAZ064-065-067-068-078-231300-
   EAST CENTRAL IOWA

CITY           SKY/WX    TMP DP  RH WIND       PRES   REMARKS
DAVENPORT        N/A     37  33  85 CALM      30.16R
6HR MIN TEMP:  34; 6HR MAX TEMP:  43;

IOWA CITY      CLEAR     38  33  82 CALM      30.18R
6HR MIN TEMP:  37; 6HR MAX TEMP:  43;

MUSCATINE *    CLEAR     36  32  87 CALM      30.18R
QUAD CITIES    CLEAR     37  35  92 CALM      30.16R
6HR MIN TEMP:  35; 6HR MAX TEMP:  42;

$$

IAZ062-063-075>077-085>089-095>099-231300-
   SOUTHEAST IOWA

CITY           SKY/WX    TMP DP  RH WIND       PRES   REMARKS
BURLINGTON     CLEAR     41  34  76 CALM      30.15S
6HR MIN TEMP:  37; 6HR MAX TEMP:  46;

FAIRFIELD *    CLEAR     37  32  81 CALM      30.16R
FORT MADISON * CLEAR     43  37  81 CALM      30.16F
KEOKUK *       CLEAR     41  34  75 CALM      30.16R
OSKALOOSA *      N/A     37  32  81 W6        30.17R WCI  33
OTTUMWA        CLEAR     39  33  79 W5        30.16R
6HR MIN TEMP:  36; 6HR MAX TEMP:  43;

WASHINGTON *   CLEAR     37  34  87 CALM      30.18R
$$

ABBREVIATIONS USED IN REMARKS
   TC - TEMPERATURES IN CELSIUS
  WCI - WIND CHILL INDEX
   HX - HEAT INDEX
  VSB - VISIBILITY
$$





USA.gov is the U.S. government's official web portal to all federal, state and local government web resources and services.